Regional Weather Roundup
Issued by NWS Bismarck, ND

Home | Current Version | Previous Version | Text Only | Print | Product List | Glossary On
Versions: 1 2 3 4 5 6 7 8 9 10 11 12 13 14 15 16 17 18 19 20 21 22 23 24 25 26 27 28 29 30 31 32 33 34 35 36 37 38 39 40 41 42 43 44 45 46 47 48 49 50
000
ASUS43 KBIS 300502
RWRBIS

NWR BROADCAST TEXT
NATIONAL WEATHER SERVICE BISMARCK ND
1200 AM CDT FRI SEP 30 2016

NOTE: "FAIR" INDICATES FEW OR NO CLOUDS BELOW 12,000 FEET WITH NO
SIGNIFICANT WEATHER AND/OR OBSTRUCTIONS TO VISIBILITY.


CITY           SKY/WX    TMP DP  RH WIND       PRES   REMARKS
WILLISTON      CLOUDY    63  42  46 SE12G20   30.12F
MINOT          PTCLDY    52  46  80 SE9       30.22F
MINOT AFB      PTCLDY    50  46  85 SE7       30.21F
BISMARCK       CLEAR     54  45  71 SE8       30.25S
DICKINSON      PTCLDY    57  41  55 SE18      30.14F
GARRISON         N/A     55  46  71 SE12      30.22S
HETTINGER ARPT CLOUDY    58  43  57 SE15      30.18S
JAMESTOWN      CLEAR     50  45  83 SE9       30.33R
BEACH          MOCLDY    63  41  45 SE18      30.13S
CARRINGTON     FAIR      50  45  81 SE9       30.34R
HAZEN          FAIR      55  45  67 SE10G17   30.23S
RUGBY          FAIR      54  46  76 SE13      30.28S
STANLEY        FAIR      54  50  87 SE10      30.21F
$$

CITY           SKY/WX    TMP DP  RH WIND       PRES   REMARKS
GRAND FORKS    PTCLDY    50  44  80 SE9       30.37S
GRAND FORKS AF PTCLDY    51  45  81 S8        30.37R
DEVILS LAKE    CLEAR     54  47  77 SE12      30.32F
FARGO          CLEAR     52  45  77 E9        30.38S
CANDO          FAIR      48  48 100 SE7       30.34R
CAVALIER       FAIR      52  46  82 SE7       30.36S
GRAFTON        FAIR      50  48  93 SE9       30.38S
GWINNER        FAIR      50  46  87 SE10      30.36S
LANGDON        FAIR      50  46  87 SE12      30.34F
ROLLA          FAIR      48  46  93 SE9       30.31S
WALHALLA       FAIR      48  45  87 SE7       30.36S
$$

CITY           SKY/WX    TMP DP  RH WIND       PRES   REMARKS
ABERDEEN       CLEAR     48  44  86 SE7       30.33S
MOBRIDGE       CLOUDY    57  45  64 SE15      30.23F
BUFFALO          N/A     65  41  41 SE20G26   30.06S
RAPID CITY     PTCLDY    61  44  53 S14       30.19S
GLASGOW        CLOUDY    63  47  55 E12       29.99F
SIDNEY         MOCLDY    63  46  54 S5        30.09S
WOLF POINT     CLEAR     59  49  69 NE7       30.03S
GLENDIVE       CLOUDY    70  45  40 SE14G22   30.04F
MILES CITY     CLOUDY    73  47  39 SE8       29.98F
BAKER          CLOUDY    64  42  44 SE18      30.09F
$$

CITY           SKY/WX    TMP DP  RH WIND       PRES   REMARKS
BILLINGS       CLOUDY    70  47  43 W13       30.06S
GREAT FALLS    CLOUDY    54  47  77 SW7       30.05R
$$





USA.gov is the U.S. government's official web portal to all federal, state and local government web resources and services.